Location: Sortland
(68.7020°N, 15.4240°E)
Time: 00:26:14
(UTC+01:00)

Envisat - Pass Details

Date: 30 October 2019
Orbit: 764 x 766 km, 98.1° (Epoch: 14 November)

Event Time Altitude Azimuth Distance (km) Brightness Sun altitude
Rises 17:24:03 0° 163° (SSE) 3,232 6.2 -11.3°
Reaches altitude 10° 17:26:22 10° 166° (SSE) 2,308 5.4 -11.5°
Maximum altitude 17:31:27 73° 251° (WSW) 809 3.3 -11.9°
Drops below altitude 10° 17:36:34 10° 337° (NNW) 2,320 5.7 -12.4°
Sets 17:38:54 0° 339° (NNW) 3,249 6.5 -12.6°
